#timestamp,LO_Frequency,Hit,StdDev 
1575925215.7,286047002.8,N
1575925235.6,286047002.1,N
1575925255.4,286047002.7,N
1575925275.2,286047001.5,N
1575925295.1,286047002.7,N
1575925296.0,286047002.7,N
1575925315.8,286047000.3,N
1575925335.7,286047001.2,N
1575925355.5,286047000.1,N
1575925375.3,286047000.2,N
1575925395.2,286047002.7,N
1575925415.0,286047000.3,N
1575925415.9,286047000.3,N
1575925435.7,286047000.1,N
1575925455.6,286046999.8,N
1575925475.4,286046999.8,N
1575925495.3,286046999.8,N
1575925515.1,286047002.5,N
1575925516.0,286047002.5,N
1575925535.8,286047001.6,N
1575925555.7,286047001.9,N
1575925575.5,286047002.5,N
1575925595.3,286047001.4,N
1575925615.2,286047003.7,N
1575925635.0,286047003.8,N
1575925635.9,286047003.8,N
1575925655.8,286047004.2,N
1575925675.6,286047001.9,N
1575925695.4,286047004.0,N
1575925715.3,286047005.6,Y
1575925735.1,286047000.0,P
1575925755.8,286046999.9,N
1575925775.7,286046999.7,N
1575925795.5,286047001.2,N
1575925815.4,286046998.9,N
1575925835.2,286046999.1,N
1575925855.0,286046999.0,N
1575925855.9,286046999.0,N
1575925875.8,286046998.9,N
1575925895.6,286046999.6,N
1575925915.4,286046998.7,N
1575925935.3,286046998.8,N
1575925955.1,286046996.9,Y
1575925975.9,286046999.3,P
1575925995.7,286047001.2,P
1575926015.5,286046998.9,N
1575926035.4,286046998.5,N
1575926055.2,286046998.2,N
1575926075.0,286046998.4,N
1575926076.0,286046998.4,N
1575926095.8,286047001.2,N
1575926115.6,286046998.6,N
1575926135.5,286047000.9,N
1575926155.3,286046998.3,N
1575926175.1,286046999.0,N
1575926195.9,286047002.7,N
1575926215.7,286047000.7,N
1575926235.6,286046998.5,N
1575926255.4,286046998.7,N
1575926275.2,286046999.4,N
1575926295.1,286046999.5,N
1575926296.0,286046999.5,N
1575926315.8,286046998.7,N
1575926335.6,286046998.8,N
1575926355.5,286046998.1,N
1575926375.3,286046996.7,N
1575926395.2,286046997.3,N
1575926415.9,286046997.6,N
1575926435.7,286046997.2,N
1575926455.6,286046996.5,N
1575926475.4,286046997.5,N
1575926495.2,286046997.6,N
1575926515.1,286046997.0,N
1575926516.0,286046997.0,N
1575926535.8,286046997.0,N
1575926555.7,286046999.6,N
1575926575.5,286046999.1,N
1575926595.3,286046997.5,N
1575926615.2,286046997.7,N
1575926635.0,286046997.2,N
1575926635.9,286046997.2,N
1575926655.7,286046998.8,N
1575926675.6,286046998.7,N
1575926695.4,286046998.7,N
1575926715.3,286046998.3,N
1575926735.1,286046998.6,N
1575926736.0,286046998.6,N
1575926755.8,286047000.7,N
1575926775.7,286046998.6,N
1575926795.5,286047000.8,N
1575926815.3,286046998.6,N
1575926835.2,286046998.3,N
1575926855.0,286047002.1,N
1575926855.9,286047002.1,N
1575926875.8,286046999.9,N
1575926895.6,286047002.5,N
1575926915.4,286047000.1,N
1575926935.3,286047000.7,N
1575926955.1,286047001.0,N
1575926975.8,286047000.1,N
1575926995.7,286046998.1,N
1575927015.5,286046998.7,N
1575927035.4,286046999.4,N
1575927055.2,286046998.7,N
1575927075.0,286046999.2,N
1575927075.9,286046999.2,N
1575927095.8,286046995.5,Y
1575927115.6,286046997.6,P
1575927135.4,286046995.0,P
1575927155.3,286046995.4,N
1575927175.1,286046997.8,N
1575927195.9,286046999.4,N
1575927215.7,286046997.2,N
1575927235.5,286046997.5,N
1575927255.4,286046999.5,N
1575927275.2,286046996.8,N
1575927295.0,286046998.5,N
1575927295.9,286046998.5,N
1575927315.8,286046996.6,N
1575927335.6,286046999.6,N
1575927355.5,286047001.2,N
1575927375.3,286047001.2,N
1575927395.1,286047000.7,N
1575927415.9,286046998.6,N
1575927435.7,286046998.9,N
1575927455.6,286046999.3,N
1575927475.4,286046999.5,N
1575927495.2,286046997.1,N
1575927515.1,286046997.1,N
1575927516.0,286046997.1,N
1575927535.8,286046998.0,N
1575927555.6,286046997.8,N
1575927575.5,286046999.6,N
1575927595.3,286046999.1,N
1575927615.2,286046998.4,N
1575927635.9,286046998.6,N
1575927655.7,286046999.4,N
1575927675.6,286046999.2,N
1575927695.4,286046999.1,N
1575927715.2,286046996.7,N
1575927735.1,286047000.9,N
1575927736.0,286047000.9,N
1575927755.8,286047002.8,N
1575927775.7,286047000.4,N
1575927795.5,286047003.7,N
1575927815.3,286047004.3,N
1575927835.2,286047002.5,N
1575927855.9,286047003.6,N
1575927875.7,286047001.7,N
1575927895.6,286047000.2,N
1575927915.4,286047000.3,N
1575927935.2,286047000.5,N
1575927955.1,286047000.5,N
1575927956.0,286047000.5,N
1575927975.8,286047000.8,N
1575927995.7,286046998.5,N
1575928015.5,286047001.2,N
1575928035.3,286046998.8,N
1575928055.2,286046998.5,N
1575928075.0,286047000.8,N
1575928075.9,286047000.8,N
1575928095.8,286047001.0,N
1575928115.6,286046998.3,N
1575928135.4,286046999.9,N
1575928155.3,286047002.5,N
1575928175.1,286046999.9,N
1575928195.8,286047000.4,N
1575928215.7,286046998.3,N
1575928235.5,286046998.7,N
1575928255.4,286047000.3,N
1575928275.2,286046998.3,N
1575928295.0,286047000.5,N
1575928295.9,286047000.5,N
1575928315.8,286047000.3,N
1575928335.6,286047001.1,N
1575928355.4,286046998.9,N
1575928375.3,286046998.4,N
1575928395.1,286046996.7,N
1575928415.9,286046998.0,N
1575928435.7,286046996.9,N
1575928455.5,286046997.0,N
1575928475.4,286046999.0,N
1575928495.2,286046998.3,N
1575928515.0,286046999.5,N
1575928515.9,286046999.5,N
1575928535.8,286046999.0,N
1575928555.6,286046999.3,N
1575928575.5,286047000.5,N
1575928595.3,286047000.9,N
1575928615.1,286046998.6,N
1575928635.9,286046999.2,N
1575928655.7,286047001.1,N
1575928675.5,286046999.9,N
1575928695.4,286047001.2,N
1575928715.2,286046998.1,N
1575928735.1,286047002.7,N
1575928736.0,286047002.7,N
1575928755.8,286046999.8,N
1575928805.7,286046999.9,E
